Tracking 18840 objects as of 20-November-2017
HD Live streaming from Space Station
objects crossing your sky now

GLOBALSTAR M026

Track GLOBALSTAR M026 now!
10-day predictions
GLOBALSTAR M026 is classified as:


NORAD ID: 25873
Int'l Code: 1999-041B
Perigee: 2,133.2 km
Apogee: 2,135.6 km
Inclination: 52.0 °
Period: 130.1 minutes
Semi major axis: 8505 km
RCS: 2.6024 m2 (large)
Launch date: July 25, 1999
Source: Globalstar (GLOB)
Launch site: AIR FORCE EASTERN TEST RANGE (AFETR)
aabbcc
Your satellite tracking list
Your tracking list is empty




NASA's NSSDC Master Catalog

Two Line Element Set (TLE):
1 25873U 99041B   17323.32172786 -.00000108 +00000-0 -16118-2 0  9990
2 25873 052.0009 252.0350 0001437 040.9822 102.3980 11.06775186842302
Source of the keplerian elements: AFSPC